Location: Bennemühlen
(52.5740°N, 9.7135°E)
Time: 20:47:39
(UTC+00:00)

Tiros 1 despin weight - Pass Details

Date: 16 February 2026
Orbit: 556 x 593 km, 48.2° (Epoch: 5 March)

Event Time Altitude Azimuth Distance (km) Brightness Sun altitude
Rises 20:23:39 0° 274° (W) 2,738 ? -34.4°
Enters shadow 20:26:21 10° 257° (WSW) 1,859 ? -34.8°
Reaches altitude 10° 20:26:24 10° 256° (WSW) 1,842 - -34.8°
Maximum altitude 20:29:22 19° 211° (SSW) 1,371 - -35.2°
Drops below altitude 10° 20:32:20 10° 166° (SSE) 1,847 - -35.6°
Sets 20:35:05 0° 148° (SSE) 2,746 - -35.9°
